Location: Newark
(33.6333°S, 78.8500°W)
Time: 06:05:17
(UTC+00:00)

Tiros 1 - Pass Details

Date: 18 October 2019
Orbit: 630 x 664 km, 48.4° (Epoch: 18 November)

Event Time Altitude Azimuth Distance (km) Brightness Sun altitude
Rises 03:40:50 0° 250° (WSW) 2,939 11.0 -42.9°
Enters shadow 03:41:11 - 252° (WSW) 2,824 10.9 -42.9°
Reaches altitude 10° 03:43:58 10° 272° (W) 2,027 - -43.2°
Maximum altitude 03:46:44 16° 309° (NW) 1,678 - -43.4°
Drops below altitude 10° 03:49:31 10° 346° (NNW) 2,024 - -43.7°
Sets 03:52:40 0° 7° (N) 2,932 - -43.9°
